• In Denmark
  • List of Countries
  • For 7 days
  • Water Temperature
  • Satellite Maps
  • Weather Map
  • Weather Widgets
  • user-avatar
    Login

    Hourly Weather Naftalan

    Today, 20 October, Friday

    Time Temperature Precipitation Wind Pressure Humidity
    00:00 +19°C° 0 mm 1 mps 767 mmHg 82%
    01:00 +18°C° 0 mm 2 mps 767 mmHg 82%
    02:00 +17°C° 0 mm 2 mps 767 mmHg 82%
    03:00 +17°C° 0 mm 2 mps 766 mmHg 82%
    04:00 +16°C° 0 mm 2 mps 766 mmHg 81%
    05:00 +16°C° 0 mm 2 mps 766 mmHg 79%
    06:00 +16°C° 0 mm 3 mps 766 mmHg 78%
    07:00 +17°C° 0 mm 2 mps 767 mmHg 71%
    08:00 +18°C° 0 mm 2 mps 767 mmHg 65%
    09:00 +20°C° 0 mm 2 mps 767 mmHg 58%
    10:00 +21°C° 0 mm 2 mps 766 mmHg 54%
    11:00 +23°C° 0 mm 2 mps 766 mmHg 49%
    12:00 +24°C° 0 mm 2 mps 766 mmHg 45%
    13:00 +24°C° 0 mm 2 mps 766 mmHg 44%
    14:00 +24°C° 0 mm 2 mps 766 mmHg 42%
    15:00 +25°C° 0 mm 2 mps 766 mmHg 41%
    16:00 +23°C° 0 mm 2 mps 766 mmHg 49%
    17:00 +21°C° 0 mm 2 mps 766 mmHg 57%
    18:00 +20°C° 0 mm 3 mps 766 mmHg 65%
    19:00 +19°C° 0 mm 2 mps 766 mmHg 69%
    20:00 +19°C° 0 mm 2 mps 766 mmHg 73%
    21:00 +18°C° 0 mm 2 mps 766 mmHg 77%
    22:00 +18°C° 0 mm 2 mps 766 mmHg 78%
    23:00 +18°C° 0 mm 2 mps 766 mmHg 79%

    Tomorrow, 21 October, Saturday

    Time Temperature Precipitation Wind Pressure Humidity
    00:00 +17°C° 0 mm 2 mps 766 mmHg 81%
    01:00 +18°C° 0 mm 1 mps 766 mmHg 81%
    02:00 +18°C° 0 mm 1 mps 766 mmHg 82%
    03:00 +16°C° 0 mm 1 mps 766 mmHg 83%
    04:00 +16°C° 0 mm 1 mps 766 mmHg 83%
    05:00 +16°C° 0 mm 1 mps 766 mmHg 84%
    06:00 +16°C° 0 mm 1 mps 766 mmHg 84%
    07:00 +18°C° 0 mm 1 mps 766 mmHg 78%
    08:00 +20°C° 0 mm 1 mps 766 mmHg 73%
    09:00 +21°C° 0 mm 1 mps 766 mmHg 67%
    10:00 +22°C° 0 mm 1 mps 766 mmHg 62%
    11:00 +23°C° 0 mm 2 mps 765 mmHg 58%
    12:00 +24°C° 0 mm 2 mps 765 mmHg 54%
    13:00 +24°C° 0 mm 2 mps 764 mmHg 54%
    14:00 +24°C° 0 mm 3 mps 764 mmHg 54%
    15:00 +25°C° 0 mm 3 mps 763 mmHg 54%
    16:00 +22°C° 0 mm 4 mps 763 mmHg 62%
    17:00 +21°C° 0 mm 4 mps 763 mmHg 70%
    18:00 +20°C° 0 mm 4 mps 763 mmHg 78%
    19:00 +19°C° 0 mm 4 mps 763 mmHg 79%
    20:00 +19°C° 0 mm 4 mps 764 mmHg 80%
    21:00 +19°C° 0 mm 4 mps 764 mmHg 81%
    22:00 +18°C° 0 mm 3 mps 763 mmHg 82%
    23:00 +18°C° 0 mm 3 mps 763 mmHg 83%

    Day after tomorrow, 22 October, Sunday

    Time Temperature Precipitation Wind Pressure Humidity
    00:00 +18°C° 0 mm 3 mps 763 mmHg 83%
    01:00 +18°C° 0 mm 2 mps 763 mmHg 84%
    02:00 +17°C° 0 mm 2 mps 763 mmHg 84%
    03:00 +17°C° 0 mm 2 mps 762 mmHg 84%
    04:00 +17°C° 0 mm 2 mps 762 mmHg 83%
    05:00 +17°C° 0 mm 2 mps 762 mmHg 82%
    06:00 +17°C° 0 mm 2 mps 762 mmHg 81%
    07:00 +18°C° 0 mm 2 mps 762 mmHg 75%
    08:00 +19°C° 0 mm 2 mps 762 mmHg 69%
    09:00 +21°C° 0 mm 2 mps 763 mmHg 63%
    10:00 +23°C° 0 mm 2 mps 762 mmHg 58%
    11:00 +24°C° 0 mm 2 mps 762 mmHg 54%
    12:00 +25°C° 0 mm 2 mps 761 mmHg 49%
    13:00 +25°C° 0 mm 2 mps 761 mmHg 49%
    14:00 +25°C° 0 mm 3 mps 760 mmHg 48%
    15:00 +25°C° 0 mm 3 mps 760 mmHg 48%
    16:00 +24°C° 0 mm 3 mps 760 mmHg 58%
    17:00 +21°C° 0 mm 4 mps 760 mmHg 68%
    18:00 +20°C° 0 mm 4 mps 760 mmHg 78%
    19:00 +20°C° 0 mm 4 mps 760 mmHg 82%
    20:00 +19°C° 0 mm 3 mps 760 mmHg 85%
    21:00 +19°C° 0 mm 3 mps 760 mmHg 88%
    22:00 +19°C° 0 mm 3 mps 760 mmHg 84%
    23:00 +18°C° 0 mm 3 mps 760 mmHg 80%

    23 October, Monday

    Time Temperature Precipitation Wind Pressure Humidity
    00:00 +18°C° 0 mm 3 mps 760 mmHg 77%
    01:00 +18°C° 0 mm 3 mps 760 mmHg 65%
    02:00 +17°C° 0 mm 4 mps 760 mmHg 53%
    03:00 +16°C° 0 mm 5 mps 761 mmHg 42%
    04:00 +16°C° 0 mm 5 mps 761 mmHg 41%
    05:00 +16°C° 0 mm 6 mps 762 mmHg 39%
    06:00 +15°C° 0 mm 6 mps 763 mmHg 38%
    07:00 +17°C° 0 mm 7 mps 763 mmHg 39%
    08:00 +18°C° 0 mm 7 mps 764 mmHg 41%
    09:00 +20°C° 0 mm 7 mps 765 mmHg 43%
    10:00 +21°C° 0 mm 7 mps 765 mmHg 44%
    11:00 +21°C° 0 mm 7 mps 765 mmHg 46%
    12:00 +22°C° 0 mm 7 mps 766 mmHg 48%
    13:00 +21°C° 0 mm 7 mps 766 mmHg 52%
    14:00 +21°C° 0 mm 8 mps 766 mmHg 56%
    15:00 +20°C° 0 mm 8 mps 766 mmHg 60%
    16:00 +18°C° 0 mm 8 mps 767 mmHg 64%
    17:00 +17°C° 0 mm 7 mps 767 mmHg 67%
    18:00 +16°C° 0 mm 7 mps 768 mmHg 71%
    19:00 +16°C° 0.1 mm 7 mps 768 mmHg 72%
    20:00 +16°C° 0.1 mm 7 mps 768 mmHg 73%
    21:00 +16°C° 0.1 mm 7 mps 769 mmHg 73%
    22:00 +16°C° 0.1 mm 7 mps 768 mmHg 74%
    23:00 +16°C° 0.1 mm 7 mps 768 mmHg 75%

    24 October, Tuesday

    Time Temperature Precipitation Wind Pressure Humidity
    00:00 +15°C° 0.1 mm 7 mps 768 mmHg 76%
    01:00 +15°C° 0.1 mm 7 mps 768 mmHg 76%
    02:00 +15°C° 0.1 mm 7 mps 768 mmHg 76%
    03:00 +15°C° 0.1 mm 7 mps 768 mmHg 77%
    04:00 +15°C° 0.1 mm 7 mps 768 mmHg 77%
    05:00 +15°C° 0.1 mm 7 mps 768 mmHg 78%
    06:00 +16°C° 0.1 mm 7 mps 768 mmHg 78%
    07:00 +16°C° 0.2 mm 6 mps 768 mmHg 78%
    08:00 +16°C° 0.2 mm 6 mps 768 mmHg 78%
    09:00 +16°C° 0.2 mm 6 mps 769 mmHg 77%
    10:00 +16°C° 0.1 mm 5 mps 768 mmHg 76%
    11:00 +17°C° 0.1 mm 5 mps 768 mmHg 74%
    12:00 +18°C° 0.1 mm 4 mps 768 mmHg 72%
    13:00 +18°C° 0 mm 4 mps 768 mmHg 71%
    14:00 +18°C° 0 mm 3 mps 768 mmHg 70%
    15:00 +18°C° 0 mm 3 mps 768 mmHg 69%
    16:00 +18°C° 0 mm 3 mps 768 mmHg 72%
    17:00 +17°C° 0 mm 3 mps 768 mmHg 74%
    18:00 +17°C° 0 mm 2 mps 769 mmHg 77%
    19:00 +17°C° 0 mm 2 mps 769 mmHg 76%
    20:00 +17°C° 0 mm 2 mps 769 mmHg 75%
    21:00 +17°C° 0 mm 2 mps 769 mmHg 74%
    22:00 +17°C° 0 mm 2 mps 769 mmHg 74%
    23:00 +17°C° 0 mm 2 mps 768 mmHg 74%

    25 October, Wednesday

    Time Temperature Precipitation Wind Pressure Humidity
    00:00 +17°C° 0 mm 2 mps 768 mmHg 74%
    01:00 +17°C° 0 mm 2 mps 768 mmHg 74%
    02:00 +16°C° 0 mm 2 mps 768 mmHg 75%
    03:00 +16°C° 0 mm 2 mps 768 mmHg 75%
    04:00 +16°C° 0 mm 2 mps 768 mmHg 76%
    05:00 +16°C° 0 mm 2 mps 768 mmHg 78%
    06:00 +15°C° 0 mm 2 mps 769 mmHg 79%
    07:00 +16°C° 0 mm 2 mps 769 mmHg 75%
    08:00 +17°C° 0 mm 2 mps 769 mmHg 72%
    09:00 +18°C° 0 mm 3 mps 769 mmHg 68%
    10:00 +19°C° 0 mm 2 mps 769 mmHg 65%
    11:00 +20°C° 0 mm 2 mps 768 mmHg 63%
    12:00 +21°C° 0 mm 2 mps 768 mmHg 60%
    13:00 +21°C° 0 mm 2 mps 768 mmHg 59%
    14:00 +23°C° 0 mm 2 mps 768 mmHg 59%
    15:00 +22°C° 0 mm 3 mps 767 mmHg 58%
    16:00 +21°C° 0 mm 3 mps 768 mmHg 65%
    17:00 +20°C° 0 mm 3 mps 768 mmHg 71%
    18:00 +19°C° 0 mm 3 mps 768 mmHg 78%
    19:00 +19°C° 0 mm 3 mps 769 mmHg 80%
    20:00 +18°C° 0 mm 3 mps 769 mmHg 82%
    21:00 +18°C° 0 mm 3 mps 769 mmHg 84%
    22:00 +18°C° 0 mm 4 mps 769 mmHg 84%
    23:00 +17°C° 0 mm 4 mps 769 mmHg 84%
    Show more